THORAD AGENA D DEB

Satellite information

Favourite Embed

Satellite Type and Status

DEBRISIN ORBIT

Key statistics

Satellite THORAD AGENA D DEB at a glance.

Uptime

20472

Days in orbit

Revolutions

≈ 14.4

Per day

Orbit

LEO

Low Earth Orbit

Inclination

70.1

Latest

Satellite identification and parameters

Extended collection of information and parameters for THORAD AGENA D DEB.

Object identification

Identified? True

Debris? True

Object name: THORAD AGENA D DEB

International designator: 1969-082HY

Object number (NORAD): 5519

Object ID (CCSDS): 5519

Country: UNITED STATES OF AMERICA (US)

Current information (Y/N): Y

RCS size: SMALL

Orbital parameters

Period: 99.771 minutes

Inclination: 70.0543 deg

SMA: 7125.734 km

Apoapsis: 781.78 km

Periapsis: 713.418 km

RAAN: 174.9305 deg

Eccentricy: 0.00479682

Argument of periapsis: 205.6027 deg

Mean anomaly: 154.2729 deg

Mean motion: 14.43305829 rev/day

Mean motion (dot): 0.00001487 rev/day2

B* drag term: 0.00045239926 1/REarth

Two-line elements (TLE)

Creation date: Oct. 18, 2025, 2:17 a.m.

Reference frame: TEME

Reference center: EARTH

Epoch: Oct. 17, 2025, 10:02 a.m. UTC

TLE line 0: 0 THORAD AGENA D DEB

TLE line 1: 1 05519U 69082HY 25290.41831216 .00001487 00000-0 45240-3 0 9997

TLE line 2: 2 05519 70.0543 174.9305 0047968 205.6027 154.2729 14.43305829916056

Live tracking on map

Real-time ground track for satellite THORAD AGENA D DEB.

In-orbit conjunctions

A list of the most updated potential collisions computed for object THORAD AGENA D DEB.

Target Orbit TCA Probability of collision Miss distance Type
FENGYUN 1C DEB SSO 2025-10-11 21:12:19 0.0001264393 326.0 (m) DEBRIS
COSMOS 2251 DEB LEO 2025-10-10 05:39:46 0.0001131825 793.0 (m) DEBRIS
CZ-4B R/B LEO 2025-09-08 22:38:35 0.0002809994 869.0 (m) ROCKET BODY
ITAMSAT SSO 2024-11-20 02:31:31 0.0001000628 663.0 (m) PAYLOAD
FENGYUN 1C DEB SSO 2024-06-07 01:44:54 0.0001115613 240.0 (m) DEBRIS

Associated space launch

Poppy was the follow-on ELINT system, which succeeded the Grab ELINT satellite system.

THORAD AGENA D DEB was lifted into orbit during the mission ‘Thorad SLV-2G Agena D | Poppy 8A,B,C,D’, on board a Thorad SLV-2G Agena D space rocket.

The launch took place on Sept. 30, 1969, 1:40 p.m. from Space Launch Complex 1W.

For more information about the launch, click the button.

Launch to space Thorad SLV-2G Agena D | Poppy 8A,B,C,D
Thorad SLV-2G Agena D | Poppy 8A,B,C,D

Agency: N/A

Status: Launch Successful

Launch date: Sept. 30, 1969, 1:40 p.m. UTC

Rocket: Thorad SLV-2G Agena D

Launch pad: Space Launch Complex 1W

Location: Vandenberg SFB, CA, USA

...

Latest news about this satellite

There are no fresh news available about this satellite. Check back as we update our databases every day.


Newsletter sign-up

Weekly statistics, charts and insights to help you stay on top of the space industry.